This is the latest recevied weather packets stored in our database for station/object AJ7DN. If no packets are shown the sender has not sent any weather packets the latest 10 day(s).
| Time | Temp. | Humidity | Pressure | Rain* | Wind** | Luminosity | Snow |
|---|---|---|---|---|---|---|---|
| 1777830674 | 25.56° C | 46% | 1015.5 hPa | 0 mm | - | 807 W/m² | - |
| 1777830371 | 25.56° C | 46% | 1015.5 hPa | 0 mm | - | 771 W/m² | - |
| 1777830068 | 25° C | 51% | 1015.6 hPa | 0 mm | - | 764 W/m² | - |
| 1777829762 | 24.44° C | 51% | 1015.5 hPa | 0 mm | - | 745 W/m² | - |
| 1777829459 | 23.89° C | 53% | 1015.5 hPa | 0 mm | - | 745 W/m² | - |
| 1777829156 | 23.89° C | 53% | 1015.6 hPa | 0 mm | - | 746 W/m² | - |
| 1777828854 | 23.33° C | 54% | 1015.9 hPa | 0 mm | - | 725 W/m² | - |
| 1777828550 | 23.33° C | 55% | 1015.8 hPa | 0 mm | - | 693 W/m² | - |
| 1777828248 | 22.78° C | 55% | 1015.7 hPa | 0 mm | - | 661 W/m² | - |
| 1777827943 | 22.78° C | 57% | 1015.7 hPa | 0 mm | - | 634 W/m² | - |
| 1777827641 | 22.78° C | 58% | 1015.7 hPa | 0 mm | - | 604 W/m² | - |
| 1777827338 | 22.22° C | 59% | 1015.7 hPa | 0 mm | - | 565 W/m² | - |
| 1777827034 | 22.22° C | 60% | 1015.9 hPa | 0 mm | - | 547 W/m² | - |
| 1777826731 | 21.67° C | 61% | 1015.8 hPa | 0 mm | - | 548 W/m² | - |
| 1777826428 | 21.11° C | 62% | 1016 hPa | 0 mm | - | 531 W/m² | - |
| 1777826125 | 21.11° C | 63% | 1015.9 hPa | 0 mm | - | 480 W/m² | - |
| 1777825822 | 20.56° C | 63% | 1015.8 hPa | 0 mm | - | 450 W/m² | - |
| 1777825520 | 20.56° C | 63% | 1015.9 hPa | 0 mm | - | 402 W/m² | - |
| 1777825218 | 20° C | 66% | 1015.8 hPa | 0 mm | - | 399 W/m² | - |
| 1777824914 | 19.44° C | 68% | 1016.1 hPa | 0 mm | - | 376 W/m² | - |
| 1777824610 | 18.89° C | 69% | 1016.1 hPa | 0 mm | - | 338 W/m² | - |
| 1777824307 | 18.89° C | 71% | 1016.1 hPa | 0 mm | - | 90 W/m² | - |
| 1777824003 | 18.89° C | 71% | 1016 hPa | 0 mm | - | 46 W/m² | - |
| 1777823699 | 18.33° C | 72% | 1015.9 hPa | 0 mm | - | 40 W/m² | - |
| 1777823396 | 17.78° C | 73% | 1016 hPa | 0 mm | - | 40 W/m² | - |
* Rain latest hour (hover to see other rain measurements)
** Current wind speed in m/s (hover to see current wind gust speed)